Change the Weather History Date:

Sunday, May 18, 2014

  Actual Average Record
Temperature  
Mean Temperature 60 °F -  
Max Temperature 69 °F 72 °F 88 °F (1987)
Min Temperature 51 °F 59 °F 50 °F (1967)
Degree Days  
Heating Degree Days 5    
Growing Degree Days 10 (Base 50)    
Moisture  
Dew Point 50 °F    
Average Humidity 69    
Maximum Humidity 96    
Minimum Humidity 42    
Precipitation  
Precipitation 0.00 in - - ()
Sea Level Pressure  
Sea Level Pressure 30.18 in    
Wind  
Wind Speed 3 mph (ENE)    
Max Wind Speed 9 mph    
Max Gust Speed -    
Visibility 10 miles    
Events      
Averages and records for this station are not official NWS values.
T = Trace of Precipitation, MM = Missing Value Source: NWS Daily Summary

Daily Weather History Graph

Daily Weather History Graph

Search for Another Location

Airport or City:

Trip Planner

Search our weather history database for the weather conditions in past years. The results will help you decide how hot, cold, wet, or windy it might be!

Date:

Astronomy

May. 18, 2014 Rise Set
Actual Time 5:54 AM EDT 8:03 PM EDT
Civil Twilight 5:26 AM EDT 8:32 PM EDT
Nautical Twilight 4:51 AM EDT 9:07 PM EDT
Astronomical Twilight 4:13 AM EDT 9:45 PM EDT
Moon 11:52 PM EDT (5/18) 9:39 AM EDT (5/18)
Length of Visible Light 15h 06m
Length of Day
14h 08m
Waning Gibbous, 81% of the Moon is Illuminated
May 18
Waning Gibbous
May 21
Last Quarter
May 28
New
Jun 5
First Quarter
Jun 13
Full

Hourly Weather History & Observations

Time (EDT) Temp. Dew Point Humidity Pressure Visibility Wind Dir Wind Speed Gust Speed Precip Events Conditions
12:15 AM 54.1 °F 50.9 °F 89% 30.17 in 10.0 mi Calm Calm - N/A   Clear
12:35 AM 54.1 °F 50.0 °F 86% 30.16 in 10.0 mi Calm Calm - N/A   Clear
12:55 AM 53.6 °F 50.5 °F 89% 30.16 in 10.0 mi Calm Calm - N/A   Clear
1:15 AM 53.8 °F 50.7 °F 89% 30.16 in 10.0 mi Calm Calm - N/A   Clear
1:35 AM 54.1 °F 50.5 °F 88% 30.17 in 10.0 mi Calm Calm - N/A   Clear
1:55 AM 53.4 °F 50.9 °F 91% 30.16 in 10.0 mi Calm Calm - N/A   Clear
2:15 AM 53.1 °F 51.1 °F 93% 30.16 in 10.0 mi Calm Calm - N/A   Clear
2:35 AM 53.2 °F 51.4 °F 94% 30.16 in 10.0 mi Calm Calm - N/A   Clear
2:55 AM 53.1 °F 51.3 °F 94% 30.16 in 10.0 mi Calm Calm - N/A   Clear
3:15 AM 53.6 °F 51.8 °F 94% 30.16 in 10.0 mi Calm Calm - N/A   Clear
3:35 AM 53.2 °F 51.8 °F 95% 30.16 in 10.0 mi Calm Calm - N/A   Clear
3:55 AM 53.1 °F 51.4 °F 94% 30.16 in 10.0 mi Calm Calm - N/A   Clear
4:15 AM 52.7 °F 51.3 °F 95% 30.17 in 10.0 mi Calm Calm - N/A   Clear
4:35 AM 52.7 °F 51.1 °F 94% 30.17 in 10.0 mi Calm Calm - N/A   Clear
4:55 AM 52.5 °F 50.9 °F 94% 30.17 in 10.0 mi Calm Calm - N/A   Clear
5:15 AM 51.4 °F 50.4 °F 96% 30.17 in 10.0 mi Calm Calm - N/A   Clear
5:35 AM 52.0 °F 50.7 °F 95% 30.17 in 10.0 mi Calm Calm - N/A   Clear
5:55 AM 51.6 °F 50.5 °F 96% 30.17 in 10.0 mi Calm Calm - N/A   Clear
6:15 AM 52.7 °F 50.9 °F 94% 30.17 in 10.0 mi Calm Calm - N/A   Clear
6:35 AM 52.9 °F 50.7 °F 92% 30.18 in 10.0 mi Calm Calm - N/A   Clear
6:55 AM 54.5 °F 51.1 °F 88% 30.18 in 10.0 mi Calm Calm - N/A   Clear
7:15 AM 56.7 °F 53.1 °F 88% 30.18 in 10.0 mi Calm Calm - N/A   Clear
7:35 AM 61.0 °F 54.0 °F 78% 30.18 in 10.0 mi Calm Calm - N/A   Clear
7:55 AM 64.4 °F 50.5 °F 61% 30.18 in 10.0 mi Calm Calm - N/A   Clear
8:15 AM 65.3 °F 45.7 °F 49% 30.19 in 10.0 mi ESE 3.5 mph - N/A   Clear
8:35 AM 65.8 °F 44.1 °F 45% 30.19 in 10.0 mi Calm Calm - N/A   Clear
8:55 AM 66.6 °F 43.2 °F 43% 30.19 in 10.0 mi Calm Calm - N/A   Clear
9:15 AM 66.6 °F 42.4 °F 42% 30.19 in 10.0 mi ESE 4.6 mph - N/A   Clear
9:35 AM 67.1 °F 43.7 °F 43% 30.19 in 10.0 mi East 3.5 mph - N/A   Scattered Clouds
9:55 AM 67.6 °F 44.6 °F 43% 30.19 in 10.0 mi NNE 5.8 mph - N/A   Mostly Cloudy
10:15 AM 67.3 °F 45.0 °F 45% 30.19 in 10.0 mi Calm Calm - N/A   Scattered Clouds
10:35 AM 68.0 °F 46.2 °F 46% 30.19 in 10.0 mi NW 3.5 mph - N/A   Mostly Cloudy
10:55 AM 69.4 °F 47.8 °F 46% 30.19 in 10.0 mi NNW 3.5 mph - N/A   Overcast
11:15 AM 68.4 °F 46.9 °F 46% 30.20 in 10.0 mi North 6.9 mph - N/A   Overcast
11:35 AM 68.0 °F 46.4 °F 46% 30.19 in 10.0 mi North 5.8 mph - N/A   Overcast
11:55 AM 68.0 °F 46.0 °F 45% 30.20 in 10.0 mi NW 4.6 mph - N/A   Overcast
12:15 PM 68.0 °F 46.4 °F 46% 30.20 in 10.0 mi North 5.8 mph - N/A   Overcast
12:35 PM 68.0 °F 46.4 °F 46% 30.19 in 10.0 mi NE 4.6 mph - N/A   Overcast
12:55 PM 67.1 °F 45.9 °F 46% 30.19 in 10.0 mi East 8.1 mph - N/A   Overcast
1:15 PM 66.7 °F 45.9 °F 47% 30.19 in 10.0 mi ESE 9.2 mph - N/A   Overcast
1:35 PM 67.5 °F 47.3 °F 48% 30.18 in 10.0 mi ESE 8.1 mph - N/A   Overcast
1:55 PM 64.8 °F 48.2 °F 55% 30.18 in 10.0 mi ESE 9.2 mph - N/A   Overcast
2:15 PM 64.4 °F 49.8 °F 59% 30.17 in 10.0 mi ESE 6.9 mph - N/A   Overcast
2:35 PM 64.8 °F 50.2 °F 59% 30.18 in 10.0 mi SE 4.6 mph - N/A   Overcast
2:55 PM 65.5 °F 49.6 °F 57% 30.18 in 10.0 mi East 5.8 mph - N/A   Overcast
3:15 PM 65.7 °F 53.2 °F 64% 30.16 in 10.0 mi East 6.9 mph - N/A   Overcast
3:35 PM 66.7 °F 52.3 °F 60% 30.16 in 10.0 mi East 6.9 mph - N/A   Scattered Clouds
3:55 PM 66.4 °F 51.1 °F 58% 30.16 in 10.0 mi SE 5.8 mph - N/A   Clear
4:15 PM 65.7 °F 50.0 °F 57% 30.16 in 10.0 mi East 8.1 mph - N/A   Clear
4:35 PM 66.4 °F 49.8 °F 55% 30.16 in 10.0 mi East 6.9 mph - N/A   Scattered Clouds
4:55 PM 65.8 °F 49.1 °F 55% 30.16 in 10.0 mi East 5.8 mph - N/A   Scattered Clouds
5:15 PM 65.1 °F 52.2 °F 63% 30.16 in 10.0 mi East 5.8 mph - N/A   Scattered Clouds
5:35 PM 64.4 °F 52.9 °F 66% 30.16 in 10.0 mi ENE 8.1 mph - N/A   Clear
5:55 PM 64.0 °F 53.8 °F 69% 30.16 in 10.0 mi ENE 6.9 mph - N/A   Clear
6:15 PM 63.5 °F 52.5 °F 67% 30.16 in 10.0 mi NE 6.9 mph - N/A   Scattered Clouds
6:35 PM 63.1 °F 54.0 °F 72% 30.16 in 10.0 mi NE 5.8 mph - N/A   Mostly Cloudy
6:55 PM 63.0 °F 54.3 °F 73% 30.16 in 10.0 mi East 8.1 mph - N/A   Overcast
7:15 PM 62.6 °F 53.6 °F 72% 30.16 in 10.0 mi ENE 5.8 mph - N/A   Overcast
7:35 PM 62.6 °F 53.4 °F 72% 30.17 in 10.0 mi East 6.9 mph - N/A   Overcast
7:55 PM 62.6 °F 53.2 °F 71% 30.18 in 10.0 mi East 6.9 mph - N/A   Overcast
8:15 PM 62.2 °F 54.1 °F 75% 30.19 in 10.0 mi ENE 4.6 mph - N/A   Overcast
8:35 PM 62.2 °F 52.9 °F 71% 30.18 in 10.0 mi ENE 8.1 mph - N/A   Overcast
8:55 PM 61.9 °F 54.9 °F 78% 30.19 in 10.0 mi ENE 9.2 mph - N/A   Overcast
9:15 PM 61.9 °F 50.9 °F 67% 30.19 in 10.0 mi ENE 9.2 mph - N/A   Overcast
9:35 PM 61.9 °F 49.6 °F 64% 30.19 in 10.0 mi ENE 9.2 mph - N/A   Overcast
9:55 PM 61.9 °F 48.7 °F 62% 30.20 in 10.0 mi NE 9.2 mph - N/A   Overcast
10:15 PM 61.9 °F 48.7 °F 62% 30.20 in 10.0 mi NE 9.2 mph - N/A   Overcast
10:35 PM 61.7 °F 48.7 °F 62% 30.21 in 10.0 mi NE 9.2 mph - N/A   Overcast
10:55 PM 61.7 °F 48.6 °F 62% 30.20 in 10.0 mi NE 9.2 mph - N/A   Overcast
11:15 PM 61.2 °F 49.1 °F 65% 30.20 in 10.0 mi NE 8.1 mph - N/A   Overcast
11:35 PM 61.2 °F 49.6 °F 66% 30.21 in 10.0 mi NE 6.9 mph - N/A   Overcast
11:55 PM 61.0 °F 49.5 °F 66% 30.21 in 10.0 mi NE 5.8 mph - N/A   Overcast